Zurück zum Katalog

STARLINK-36567

AktivKommunikationSSO
NORAD 67552·PAYLOAD·🇺🇸 United States

Gestartet Jan 22, 2026 von Vandenberg Space Force Base

Loading…

Nächste Überflüge (nächste 24 Stunden)

TLE

AktuellSource: CelesTrak SupGP

Epoche: Sep 14, 2026, 22:52 UTC

1 67552C 26014W   26257.95326389  .00033950  00000+0  10541-2 0  2574
2 67552  97.2848 143.4433 0002264  94.3341 186.1230 15.33412642    18

Verfolge STARLINK-36567 in Echtzeit mit AllMySat

Download on the App Store